AirNav   Everest Fuels
 
 683 users online  

CN95 Heritage Field Airport
Stockton, California, USA

GOING TO STOCKTON?


FAA INFORMATION EFFECTIVE 10 SEPTEMBER 2020

Location

FAA Identifier: CN95
Lat/Long: 37-59-35.9000N 121-29-32.2450W
37-59.598333N 121-29.537417W
37.9933056,-121.4922903
(estimated)
Elevation: -24 ft. / -7 m (estimated)
From city: 10 miles WNW of STOCKTON, CA
Time zone: UTC -7 (UTC -8 during Standard Time)
Zip code: 95219

Airport Operations

Airport use: Private use. Permission required prior to landing
Activation date: 11/2016
Control tower: no
ARTCC: OAKLAND CENTER
FSS: RANCHO MURIETA FLIGHT SERVICE STATION
Attendance: UNATNDD
Segmented circle: no

Airport Communications

WX AWOS-3 at C83 (12 nm SW): 123.775 (925-634-0906)
WX ASOS at SCK (13 nm SE): PHONE 209-982-4270
WX AWOS-AV at O88 (16 nm NW): 127.075 (707-374-5396)
WX AWOS-3 at TCY (18 nm S): 118.375 (209-831-4335)

Nearby radio navigation aids

VOR radial/distance  VOR name  Freq  Var
LINr241/23.6LINDEN VOR/DME114.8017E
CCRr080/26.3CONCORD VOR/DME117.0017E
SACr157/27.2SACRAMENTO VORTAC115.2017E
MODr294/33.5MODESTO VOR/DME114.6017E
OAKr048/38.2OAKLAND VOR/DME116.8017E

Airport Services

Runway Information

Runway 13/31

Dimensions: 2837 x 50 ft. / 865 x 15 m
Surface: asphalt
RUNWAY 13  RUNWAY 31
Latitude: 37-59.775500N37-59.421167N
Longitude: 121-29.730000W121-29.344833W
Elevation: -24.0 ft.-25.0 ft.
Traffic pattern: leftleft
Touchdown point: yes, no lightsyes, no lights

Airport Ownership and Management from official FAA records

Ownership: Privately-owned
Owner: HERITAGE LAND CO
P.O. BOX 487
STOCKTON, CA 95201
Phone 209-469-7979
Manager: TONY RAMIREZ
P.O. BOX 487
STOCKTON, CA 95201
Phone 209-469-7979

Additional Remarks

FOR CD CTC OAKLAND ARTCC AT 510-745-3380.

Instrument Procedures

There are no published instrument procedures at CN95.

Some nearby airports with instrument procedures:

C83 - Byron Airport (12 nm SW)
KSCK - Stockton Metropolitan Airport (13 nm SE)
O88 - Rio Vista Municipal Airport (16 nm NW)
1O3 - Lodi Airport (16 nm NE)
KTCY - Tracy Municipal Airport (18 nm S)
 
Loc | Ops | Rwys | IFR | FBO | Links
Com | Nav | Svcs | Stats | Notes
Aerial photo
No photo
 
Airport distance calculator
Flying to Heritage Field Airport? Find the distance to fly.

From to CN95

Sunrise and sunset
Times for 21-Sep-2020
 Local
(UTC-7)
 Zulu
(UTC)
Morning civil twilight06:2913:29
Sunrise06:5513:55
Sunset19:0302:03
Evening civil twilight19:2902:29

Current date and time
Zulu (UTC)  22-Sep-2020 04:29:52
Local (UTC-7)  21-Sep-2020 21:29:52
 
METAR
KC83 
12nm SW 
220415Z AUTO 24020G26KT 10SM SCT050 21/12 A2988 RMK AO2
KSCK 
15nm SE 
220355Z AUTO 29008KT 10SM CLR 23/10 A2988 RMK AO2 SLP118 T02330100
KTCY 
18nm S 
220415Z AUTO 23020G28KT 10SM OVC050 27/04 A2986 RMK A01
KLVK 
23nm SW 
220353Z 33005KT 10SM CLR 17/13 A2993 RMK AO2 SLP133 T01720133
TAF
KSCK 
15nm SE 
212013Z 2120/2218 VRB04KT 5SM HZ SKC FM220100 29008KT P6SM SKC FM221400 VRB04KT 6SM HZ SCT250
NOTAMs
Click for the latest NOTAMs
NOTAMs are issued by the DoD/FAA and will open in a separate window not controlled by AirNav.

 

 
 

Would you like to see your business listed on this page?

 If your business provides an interesting product or service to pilots, flight crews, aircraft, or users of the Heritage Field Airport, you should consider listing it here.  To start the listing process, click on the button below
 
Add a business
 

Other Pages about Heritage Field Airport

Update a link
 
Copyright © AirNav, LLC. All rights reserved. Privacy Policy  Contact